+ View the NASA Portal
+ Center for Near-Earth Object Studies
IMPORTANT:
The SSD Announcement email list is now available. Major changes are coming in the near future, including possible hostname and/or URL changes. To be notified of such changes, subscribe to this email list.
Please visit
this page
for more details.
Don't show this message again
JPL Small-Body Database Browser
Search:
[
help
]
452279 (2015 TP174)
Classification:
Main-belt Asteroid
SPK-ID:
2452279
[
Ephemeris
|
Orbit Diagram
|
Orbital Elements
|
Mission Design
|
Physical Parameters
|
Discovery Circumstances
]
[ show orbit diagram ]
Orbital Elements at Epoch 2458600.5 (2019-Apr-27.0) TDB
Reference:
JPL 8
(heliocentric ecliptic J2000)
Element
Value
Uncertainty (1-sigma)
Units
e
.10329653632205
5.9336e-08
a
2.427306442909665
8.9188e-08
au
q
2.176574094764901
1.2379e-07
au
i
7.309646804394988
1.0671e-05
deg
node
96.23205552753953
9.1932e-05
deg
peri
220.5607147354954
0.00012032
deg
M
45.0071799717136
8.0335e-05
deg
t
p
2458427.811013301077
(2018-Nov-05.31101330)
0.00030619
TDB
period
1381.291501726701
3.78
7.613e-05
2.084e-07
d
yr
n
.2606256532744736
1.4364e-08
deg/d
Q
2.678038791054429
9.84e-08
au
Orbit Determination Parameters
# obs. used (total)
61
data-arc span
2977 days (8.15 yr)
first obs. used
2008-12-31
last obs. used
2017-02-24
planetary ephem.
DE431
SB-pert. ephem.
SB431-N16
condition code
0
norm. resid. RMS
.55831
source
ORB
producer
Otto Matic
solution date
2017-Apr-09 10:51:28
Additional Information
Earth MOID
= 1.16751 au
Jupiter MOID
= 2.54945 au
T_jup
= 3.491
[ show covariance matrix ]
[
Ephemeris
|
Orbit Diagram
|
Orbital Elements
|
Mission Design
|
Physical Parameters
|
Discovery Circumstances
]
Physical Parameter Table
Parameter
Symbol
Value
Units
Sigma
Reference
Notes
absolute magnitude
H
18.0
n/a
MPO361091
452279 (2015 TP174)
Discovered 2008-Dec-31 by Spacewatch at Kitt Peak
Reference:
Last Updated:
2015-11-30
Alternate Designations
2015 TP174
= 2008 YJ130 = 2014 KV28
[
Ephemeris
|
Orbit Diagram
|
Orbital Elements
|
Mission Design
|
Physical Parameters
|
Discovery Circumstances
]
2019-Dec-06 03:49 UT
(server date/time)
Site Manager:
Ryan S. Park
Webmaster
:
Alan B. Chamberlin